Wind_Speed
39 38 37 36 36 35 35 32 32 31 30 31 29 29 30 32 32 30 28 31 36 36 35 35 36 40 41 23 15 9 8 7 8 8 13 17 10 13 10 16 11 14 14 11 13
39 38 39 38 37 36 36 35 31 31 31 31 30 30 30 30 32 30 29 32 34 36 34 33 34 39 33 19 13 6 3 7 14 15 18 18 13 14 7 11 12 12 18 16 15
44 43 42 41 39 38 38 36 34 31 31 31 30 30 30 30 32 29 30 32 34 34 32 31 32 35 25 16 12 6 5 11 15 15 11 9 8 10 6 10 11 16 16 17 17
49 47 46 45 43 40 39 37 36 34 33 31 31 30 30 31 32 29 30 32 33 32 29 28 29 30 20 12 10 8 8 12 13 18 11 9 9 11 9 13 12 13 18 21 22
50 48 48 46 45 44 40 39 38 37 36 35 33 34 33 33 31 31 31 32 31 30 26 25 27 29 18 11 10 9 10 11 9 12 16 16 13 15 16 16 13 16 18 20 23
52 50 49 48 45 43 44 41 38 38 36 37 36 36 33 33 32 31 30 30 28 28 23 22 26 27 17 13 9 13 12 13 14 14 13 14 16 17 21 17 15 15 20 17 19
53 51 48 47 46 45 43 42 42 39 37 38 38 37 33 33 31 31 31 29 27 26 20 19 24 24 17 13 9 8 10 11 12 8 10 10 13 16 16 19 17 18 20 16 15
51 53 52 50 49 47 46 44 43 42 40 39 38 38 33 37 33 31 29 28 25 24 18 18 22 19 15 10 7 5 8 6 24 17 13 5 16 6 18 19 16 16 15 16 12
49 49 50 50 49 50 49 47 44 42 39 37 35 38 33 33 31 30 29 28 24 23 17 15 19 14 12 7 6 7 6 10 16 17 14 3 10 14 15 15 12 9 9 12 3
54 52 50 48 48 48 48 49 48 45 41 38 33 36 36 31 29 27 29 26 24 22 16 12 14 11 8 8 2 10 9 14 9 20 15 5 5 12 22 10 8 5 8 3 7
55 56 54 51 49 48 48 47 50 49 45 41 37 34 35 32 31 27 27 26 23 22 15 11 12 10 6 8 4 13 11 6 9 17 7 8 4 14 21 11 12 10 5 4 2
60 58 57 54 52 50 50 49 50 50 48 44 39 34 34 36 33 32 29 25 22 22 15 11 9 8 7 6 3 4 7 3 8 9 10 3 7 12 6 4 7 4 5 5 2
68 64 62 58 56 54 53 52 50 50 51 45 42 38 34 38 37 34 30 26 24 25 16 11 10 9 9 7 4 3 6 8 6 7 5 5 7 7 8 5 5 7 6 2 2
78 72 68 64 61 57 56 55 53 51 51 50 42 41 39 39 42 32 29 27 28 23 19 13 12 11 12 10 9 5 8 7 2 2 13 2 10 4 11 10 6 4 4 4 3
80 76 72 69 66 60 59 56 55 53 50 49 47 43 41 41 35 36 31 32 26 23 23 12 12 10 13 13 11 12 5 4 5 4 4 9 2 13 7 9 13 10 11 8 8
77 76 72 69 69 66 63 59 57 56 54 48 49 42 43 39 42 39 34 31 29 29 24 20 13 10 11 15 12 10 10 6 6 5 8 5 7 10 6 8 12 14 14 13 13
68 70 69 67 67 70 69 64 61 61 53 52 49 41 42 38 43 43 40 35 35 29 22 21 14 11 10 16 12 10 11 5 8 10 4 12 10 9 12 20 21 20 18 17 16
54 60 62 64 69 72 72 70 70 55 57 58 50 45 41 38 41 43 41 42 38 31 26 23 21 12 9 17 17 15 12 10 9 10 8 17 11 8 17 20 21 20 23 22 20
41 45 59 62 67 72 74 73 69 61 60 58 54 49 44 43 38 39 41 38 34 29 28 27 21 17 14 20 22 18 21 14 21 22 18 17 15 14 15 13 14 21 23 25 25
47 45 41 52 60 69 75 81 69 64 62 62 58 49 47 43 41 41 40 39 37 35 30 29 25 21 18 21 23 25 19 22 22 17 17 11 15 13 23 20 12 15 20 25 25
46 47 41 46 48 65 82 72 71 68 64 64 59 48 49 47 41 44 42 38 39 38 36 33 30 27 24 18 19 21 24 21 17 15 15 15 11 17 18 20 22 19 21 22 24
50 50 48 49 53 62 77 70 71 72 66 67 63 53 51 52 42 44 40 39 36 38 39 35 31 32 22 21 20 20 21 22 23 21 24 26 23 18 28 21 26 24 24 24 23
53 53 49 50 44 58 68 75 78 74 70 68 65 55 50 49 51 47 38 41 37 40 42 38 44 35 28 26 20 21 18 20 21 22 25 27 22 21 26 22 19 19 23 24 26
57 58 54 54 50 34 51 73 80 75 73 66 64 58 52 49 51 52 45 45 39 39 35 42 41 37 31 20 21 21 23 23 24 25 22 26 23 17 20 20 21 22 26 23 26
64 59 56 54 51 40 37 61 75 78 74 72 57 59 51 50 52 54 51 40 39 38 43 42 45 39 33 30 21 22 23 23 23 23 23 16 19 15 17 18 24 25 29 23 27
66 59 57 56 50 47 46 40 66 77 75 73 70 63 51 51 52 50 51 47 45 42 41 43 41 41 38 36 31 29 27 24 24 23 23 21 20 20 25 30 27 24 25 26 26
60 60 57 57 51 52 46 34 55 71 77 73 72 56 49 47 51 52 48 43 53 47 45 46 45 43 43 35 34 39 25 27 24 22 23 23 20 17 23 25 23 22 23 27 27
Wind_Direction
263 264 265 267 270 273 273 274 277 279 281 283 283 284 288 293 298 300 303 307 311 313 319 326 337 345 344 336 321 310 55 283 268 267 264 272 287 262 250 222 230 256 262 268 269
263 263 264 263 266 269 269 270 272 276 276 278 279 282 284 288 293 297 302 307 310 312 320 328 345 347 346 344 327 318 152 291 258 234 250 277 296 309 292 301 237 242 267 260 258
265 268 269 269 268 267 268 270 270 270 273 275 277 278 280 284 289 293 299 304 309 311 319 329 349 347 349 352 332 340 243 260 282 262 276 245 274 288 286 266 249 257 258 253 251
266 266 268 270 272 270 270 270 270 270 271 273 276 277 277 281 286 290 296 302 306 310 319 331 350 346 350 351 336 322 313 292 264 255 251 253 246 265 262 270 269 265 268 273 266
267 268 269 270 271 272 270 271 271 271 273 271 274 275 275 278 281 286 292 298 304 307 317 335 349 344 343 327 297 310 296 288 295 270 251 245 260 271 273 280 294 282 272 264 259
265 266 267 268 269 271 271 270 271 273 273 273 278 276 273 276 279 284 292 296 301 304 315 338 348 342 335 309 286 275 300 322 310 302 283 259 260 268 278 288 297 287 290 272 252
262 261 261 262 263 265 267 268 268 270 274 276 278 279 271 271 275 281 290 293 296 301 311 340 347 338 338 303 281 291 327 275 257 323 283 310 256 259 288 289 294 306 308 290 264
263 262 260 258 258 257 261 263 264 268 271 273 275 279 267 267 271 276 286 288 291 295 305 334 343 338 341 305 282 313 334 265 300 335 311 322 299 21 302 290 300 302 298 288 279
261 261 263 262 260 260 259 258 258 262 264 267 271 277 271 261 269 275 281 285 287 290 300 333 342 336 345 319 353 309 297 324 313 308 305 317 261 319 295 288 288 279 269 272 288
261 260 258 259 260 261 261 259 257 257 257 260 266 270 273 264 263 271 277 281 281 284 293 327 338 320 338 327 290 281 271 263 310 301 295 292 309 280 298 274 267 252 259 152 60
259 258 257 254 253 257 258 259 258 255 254 253 256 259 267 264 260 260 274 269 276 279 288 315 324 310 312 282 331 227 228 238 290 281 343 288 323 262 278 249 253 278 237 114 33
261 259 257 255 253 251 254 256 257 256 253 250 249 249 258 264 259 260 264 261 270 270 275 293 310 300 286 291 351 281 228 274 283 300 349 50 287 305 322 328 360 6 357 1 324
261 259 258 255 253 251 250 253 253 255 253 247 245 244 247 257 260 259 251 255 260 264 267 273 287 282 255 273 257 287 245 234 235 268 302 360 251 269 331 352 331 346 339 355 352
261 259 256 255 252 251 249 250 250 251 251 249 244 242 241 251 253 253 242 247 250 260 256 257 267 272 248 259 258 255 277 280 242 10 273 1 279 191 270 318 321 313 321 328 319
261 258 255 251 251 249 247 249 249 249 248 245 243 244 239 247 250 244 247 246 249 254 251 252 257 263 250 245 254 233 233 261 266 294 225 253 287 271 261 296 306 297 294 292 278
259 257 253 248 247 245 245 245 245 245 243 242 244 237 238 236 241 238 242 241 235 237 239 240 242 254 248 233 244 236 218 230 235 273 270 298 216 317 260 202 238 266 285 279 279
253 251 246 241 239 238 239 240 240 238 239 240 242 238 234 232 236 233 237 244 237 239 243 237 240 237 242 224 220 201 202 214 239 240 311 252 237 234 265 271 257 260 274 286 287
247 240 239 235 231 231 233 234 236 233 236 240 239 234 233 231 234 227 235 236 224 229 228 231 234 243 219 220 220 226 224 204 255 253 250 276 266 274 280 273 266 264 262 270 273
252 247 233 228 226 228 227 228 233 232 235 238 239 239 232 229 230 224 229 223 225 227 225 227 232 232 223 213 223 233 231 220 226 240 243 245 291 284 282 305 289 260 258 261 262
251 251 248 240 231 224 223 225 228 229 232 236 237 236 232 233 225 229 221 222 220 221 217 227 226 223 220 219 225 229 236 241 247 242 262 264 268 247 282 282 306 291 272 265 261
250 246 245 242 243 229 223 221 224 223 227 233 234 233 232 228 228 230 224 222 220 216 215 218 220 232 225 223 229 232 237 239 239 246 246 246 248 243 262 278 282 284 273 267 262
246 246 242 238 239 239 227 214 217 219 222 229 232 226 229 226 226 225 231 212 217 219 217 217 223 223 227 225 222 231 236 231 231 232 255 251 240 258 265 270 277 278 273 259 255
246 244 239 236 242 242 229 220 219 217 216 226 230 228 229 225 226 223 231 210 213 213 212 210 223 224 228 221 223 234 230 224 246 235 236 261 266 263 281 276 284 275 273 271 258
242 242 235 235 238 246 233 227 222 216 216 219 230 226 224 225 230 227 226 214 198 212 210 214 224 226 233 242 243 226 221 231 232 245 255 255 266 262 265 284 285 288 281 266 269
239 239 237 238 237 235 233 226 227 219 215 218 211 228 221 222 228 230 221 217 195 212 209 214 220 224 222 224 229 236 232 235 245 257 257 270 259 259 268 264 254 248 261 266 268
237 237 233 235 232 232 238 245 228 221 218 217 221 224 215 218 224 237 225 213 205 208 215 215 222 222 221 224 228 231 231 238 246 254 262 262 260 249 249 266 265 260 265 270 270
232 229 231 230 232 231 229 247 227 223 219 219 223 222 216 216 224 232 224 209 204 203 211 218 222 220 223 228 234 235 230 240 250 255 260 258 255 260 259 259 257 252 254 261 265
Height
5813 5814 5814 5815 5816 5817 5818 5818 5819 5819 5819 5818 5818 5817 5816 5815 5813 5811 5810 5807 5804 5801 5796 5791 5787 5783 5777 5773 5772 5771 5773 5777 5776 5776 5768 5768 5766 5758 5762 5761 5761 5762 5763 5763 5762
5805 5806 5807 5808 5808 5810 5811 5811 5812 5813 5813 5813 5812 5812 5811 5809 5808 5807 5806 5802 5800 5797 5792 5788 5785 5779 5775 5771 5770 5769 5774 5774 5771 5770 5768 5765 5762 5754 5760 5761 5762 5761 5760 5760 5760
5798 5800 5801 5801 5802 5803 5804 5805 5806 5806 5807 5807 5807 5806 5806 5804 5803 5804 5801 5798 5796 5794 5789 5785 5782 5777 5773 5771 5769 5769 5769 5770 5769 5766 5764 5763 5762 5761 5761 5758 5753 5760 5759 5758 5756
5789 5790 5792 5794 5796 5796 5798 5799 5800 5800 5800 5800 5801 5801 5800 5799 5798 5798 5796 5794 5792 5790 5787 5783 5779 5776 5773 5771 5770 5768 5768 5765 5762 5760 5762 5761 5759 5759 5759 5756 5757 5758 5757 5755 5755
5780 5781 5784 5785 5787 5789 5790 5792 5793 5793 5794 5794 5795 5795 5795 5795 5794 5794 5792 5790 5788 5786 5784 5781 5776 5773 5772 5771 5769 5766 5765 5761 5758 5757 5757 5758 5757 5757 5756 5753 5753 5751 5752 5751 5750
5769 5772 5773 5776 5778 5780 5783 5784 5785 5786 5788 5789 5788 5789 5790 5789 5788 5788 5788 5786 5784 5783 5781 5778 5774 5772 5769 5768 5767 5764 5761 5759 5757 5756 5754 5754 5755 5753 5753 5751 5751 5749 5748 5747 5745
5758 5761 5764 5766 5769 5771 5773 5776 5778 5778 5782 5782 5782 5782 5784 5782 5783 5784 5783 5781 5780 5780 5778 5775 5772 5770 5766 5765 5763 5761 5761 5756 5754 5757 5756 5753 5751 5749 5748 5750 5749 5747 5745 5742 5740
5747 5750 5753 5755 5758 5761 5764 5767 5768 5769 5773 5774 5776 5775 5777 5776 5777 5778 5778 5777 5776 5776 5775 5773 5770 5767 5764 5762 5760 5759 5760 5761 5757 5755 5755 5753 5750 5740 5747 5749 5748 5745 5743 5740 5739
5735 5738 5742 5745 5748 5751 5754 5756 5759 5760 5763 5765 5768 5769 5770 5771 5773 5773 5773 5773 5772 5772 5772 5770 5768 5765 5763 5761 5759 5761 5764 5763 5760 5756 5756 5753 5751 5751 5748 5747 5746 5745 5742 5739 5739
5722 5727 5731 5734 5737 5740 5744 5747 5748 5751 5754 5756 5759 5763 5765 5766 5766 5767 5768 5768 5768 5768 5769 5768 5766 5763 5761 5760 5763 5763 5765 5762 5761 5757 5754 5753 5754 5751 5748 5745 5745 5745 5743 5741 5741
5709 5713 5717 5721 5725 5729 5734 5736 5740 5741 5744 5748 5750 5754 5757 5760 5760 5761 5762 5763 5764 5765 5765 5764 5764 5761 5761 5762 5759 5759 5762 5761 5761 5758 5754 5753 5754 5752 5748 5745 5744 5744 5742 5743 5743
5694 5699 5703 5708 5712 5717 5721 5723 5727 5731 5735 5738 5741 5746 5749 5752 5754 5754 5756 5759 5760 5761 5761 5762 5761 5759 5759 5759 5757 5756 5757 5759 5759 5756 5754 5754 5756 5752 5749 5748 5746 5747 5747 5747 5745
5678 5683 5688 5693 5699 5704 5708 5712 5716 5719 5723 5731 5733 5735 5741 5743 5747 5747 5750 5753 5755 5755 5757 5758 5758 5756 5757 5757 5756 5755 5755 5757 5756 5755 5753 5754 5754 5752 5751 5749 5747 5746 5747 5747 5747
5659 5666 5672 5678 5684 5691 5696 5700 5703 5707 5711 5720 5725 5729 5730 5734 5737 5742 5745 5747 5747 5752 5752 5755 5755 5753 5753 5754 5754 5754 5754 5754 5753 5753 5749 5754 5754 5752 5753 5751 5749 5748 5748 5748 5748
5637 5645 5653 5661 5669 5678 5682 5687 5691 5697 5701 5708 5713 5718 5723 5725 5733 5735 5738 5738 5743 5746 5747 5751 5750 5750 5749 5750 5750 5750 5752 5753 5753 5753 5754 5756 5756 5752 5752 5751 5749 5750 5748 5748 5749
5615 5623 5631 5641 5653 5660 5668 5672 5678 5684 5690 5696 5701 5709 5713 5717 5720 5727 5729 5732 5737 5737 5740 5744 5746 5746 5746 5746 5747 5748 5749 5751 5751 5751 5754 5753 5755 5753 5751 5754 5751 5750 5747 5748 5747
5592 5600 5611 5620 5636 5640 5649 5654 5659 5669 5684 5689 5693 5698 5703 5708 5711 5715 5721 5724 5728 5731 5736 5738 5741 5741 5741 5742 5744 5745 5746 5750 5750 5752 5752 5751 5752 5754 5751 5748 5748 5747 5745 5745 5746
5573 5578 5590 5603 5611 5618 5627 5632 5639 5671 5673 5677 5681 5689 5694 5698 5701 5705 5711 5714 5719 5725 5729 5732 5734 5736 5738 5739 5741 5743 5744 5748 5748 5749 5751 5749 5749 5750 5747 5746 5744 5744 5744 5744 5743
5561 5565 5572 5584 5590 5596 5603 5606 5636 5656 5661 5668 5672 5678 5684 5689 5693 5695 5701 5708 5715 5720 5724 5727 5730 5730 5731 5734 5736 5739 5739 5744 5744 5745 5746 5747 5748 5746 5744 5742 5740 5740 5741 5740 5740
5552 5556 5563 5567 5573 5576 5579 5592 5628 5642 5649 5653 5661 5670 5676 5680 5683 5688 5692 5700 5706 5712 5718 5721 5723 5725 5726 5728 5730 5732 5736 5736 5738 5740 5740 5744 5745 5747 5740 5739 5738 5737 5736 5736 5736
5540 5545 5552 5553 5556 5556 5557 5591 5612 5622 5634 5641 5649 5659 5666 5670 5675 5679 5684 5691 5698 5704 5709 5714 5718 5719 5719 5722 5725 5728 5730 5731 5736 5736 5737 5739 5743 5735 5737 5735 5733 5733 5732 5731 5731
5528 5532 5538 5541 5543 5544 5555 5584 5599 5605 5617 5626 5633 5646 5652 5661 5665 5669 5676 5679 5690 5697 5700 5708 5711 5711 5715 5717 5719 5722 5723 5725 5727 5732 5730 5730 5732 5731 5731 5730 5728 5728 5728 5727 5727
5514 5520 5526 5532 5532 5539 5559 5567 5573 5588 5603 5614 5622 5635 5644 5652 5657 5661 5664 5670 5677 5685 5691 5698 5698 5705 5707 5711 5713 5715 5718 5722 5723 5725 5723 5723 5725 5727 5724 5724 5721 5721 5722 5723 5723
5500 5504 5515 5519 5527 5535 5545 5553 5558 5575 5589 5601 5610 5621 5632 5642 5646 5651 5655 5661 5668 5676 5685 5689 5692 5697 5702 5708 5707 5710 5711 5713 5715 5715 5717 5717 5719 5723 5721 5720 5718 5718 5716 5716 5716
5481 5492 5504 5508 5516 5527 5529 5537 5550 5562 5578 5588 5600 5609 5623 5631 5636 5639 5647 5650 5657 5668 5673 5677 5681 5689 5695 5699 5702 5703 5705 5706 5707 5709 5709 5713 5714 5716 5717 5713 5713 5712 5711 5710 5712
5468 5484 5492 5499 5510 5519 5523 5527 5537 5552 5566 5576 5589 5597 5611 5618 5625 5625 5633 5642 5650 5657 5665 5669 5674 5681 5686 5690 5693 5696 5698 5701 5702 5703 5704 5705 5706 5709 5709 5706 5704 5704 5704 5705 5705
5460 5474 5482 5491 5499 5505 5514 5523 5528 5541 5554 5567 5578 5587 5600 5610 5613 5617 5625 5632 5639 5646 5654 5661 5666 5671 5676 5683 5685 5684 5694 5694 5696 5697 5698 5698 5700 5701 5702 5699 5697 5697 5697 5698 5699